Content
SEND FEEDBACK

Daily
Averages
Monthly
Summary
United States of America

SOUTH LAKE TAHOE, CALIFORNIA


Home > North America > United States > California
Elevation: 6263 feet     Latitude: 38 53N     Longitude: 119 59W

WEATHER
 
SELECT A DAY
Number of Records: 174,516;   Date Range: 1/1/95 - 8/28/14
 
SHARE

PRINT THIS DATA

[ ← Previous Day ]
WEATHER ALMANAC - JANUARY 7, 2013
[ Next Day → ]
[ °C ]   °F
Weather ElementAverageHighLow
Temperature25.5 °F42.1 °F (1:53 pm)12 °F (5:53 am)
Dewpoint20.9 °F28.9 °F (4:53 pm)7 °F (5:53 am)
Humidity83.1 %93 % (6:05 pm)53 % (1:53 pm)
Barometer30.25 in30.36 in (7:53 pm)30.15 in (2:20 am)
Wind Speed1.3 mph5.8 mph (7:53 am)
Weather ElementAverage
Visibility4.4 mi
Wind DirectionENE (53.1 °)

Weather ElementTotal
Precipitation---
Heating Degree Days38 (Base 65)
Averaged from 62 records on January 7, 2013
WEATHER CONDITIONS BREAKOUT
WIND DIRECTION BREAKOUT
WEATHER BY HOUR - JANUARY 7, 2013
[ °C ]   °F
Local TimeTemperatureDewpointHumidityBarometerVisibilityWind DirectionWind SpeedGust SpeedPrecipitationEventsConditions
1:53 AM24.1 °F19.9 °F84 %30.16 in10.0 miCalmClear
2:20 AM17.6 °F14.0 °F86 %30.15 in2.0 miCalmClear
2:23 AM14.0 °F10.4 °F86 %30.16 in0.8 miSouth (190°)3.5 mphClear
2:33 AM17.6 °F14.0 °F86 %30.16 in2.0 miSouth (180°)3.5 mphClear
2:38 AM19.4 °F15.8 °F86 %30.16 in5.0 miCalmClear
2:53 AM18.0 °F12.9 °F81 %30.23 in4.0 miSouth (190°)3.5 mphHaze
3:04 AM17.6 °F12.2 °F79 %30.16 in10.0 miSSW (200°)4.6 mphClear
3:53 AM15.1 °F10.9 °F84 %30.25 in10.0 miCalmClear
4:53 AM14.0 °F10.0 °F84 %30.25 in10.0 miSSW (210°)3.5 mphClear
5:53 AM12.0 °F7.0 °F80 %30.27 in10.0 miSSW (200°)4.6 mphClear
6:53 AM12.9 °F8.1 °F81 %30.28 in10.0 miCalmClear
7:53 AM15.1 °F10.0 °F80 %30.30 in10.0 miSouth (190°)5.8 mphClear
8:53 AM19.9 °F17.1 °F89 %30.30 in10.0 miCalmOvercast
9:53 AM24.1 °F19.9 °F84 %30.29 in10.0 miSouth (170°)4.6 mphMostly Cloudy
10:53 AM30.9 °F21.9 °F69 %30.25 in10.0 miCalmClear
11:53 AM37.0 °F21.9 °F54 %30.25 in10.0 miNE (40°)5.8 mphClear
12:53 PM37.0 °F21.9 °F54 %30.23 in10.0 miSouth (190°)3.5 mphClear
1:53 PM42.1 °F26.1 °F53 %30.20 in10.0 miCalmClear
4:53 PM34.0 °F28.9 °F82 %30.30 in10.0 miCalmClear
5:53 PM30.0 °F27.0 °F88 %30.34 in8.0 miSSW (210°)3.5 mphClear
6:05 PM26.6 °F24.8 °F93 %30.23 in2.5 miSSW (200°)4.6 mphClear
6:14 PM30.2 °F26.6 °F86 %30.23 in6.0 miCalmClear
6:29 PM28.4 °F24.8 °F86 %30.24 in1.0 miCalmMist
6:34 PM30.2 °F26.6 °F86 %30.24 in2.0 miSouth (190°)3.5 mphPartly Cloudy
6:43 PM30.2 °F26.6 °F86 %30.24 in4.0 miCalmClear
6:50 PM30.2 °F26.6 °F86 %30.24 in10.0 miCalmClear
6:53 PM30.0 °F26.1 °F85 %30.33 in10.0 miCalmClear
7:01 PM28.4 °F24.8 °F86 %30.24 in2.5 miCalmClear
7:09 PM28.4 °F24.8 °F86 %30.24 in1.8 miCalmPartly Cloudy
7:25 PM28.4 °F24.8 °F86 %30.24 in1.0 miCalmMist
7:27 PM28.4 °F24.8 °F86 %30.25 in2.0 miCalmPartly Cloudy
7:29 PM28.4 °F24.8 °F86 %30.25 in5.0 miCalmPartly Cloudy
7:39 PM28.4 °F24.8 °F86 %30.25 in2.5 miCalmPartly Cloudy
7:41 PM26.6 °F24.8 °F93 %30.25 in1.0 miCalmMist
7:49 PM28.4 °F24.8 °F86 %30.25 in0.5 miSSW (200°)4.6 mphFogLight Freezing Fog
7:53 PM27.0 °F24.1 °F89 %30.36 in0.8 miCalmMist
8:06 PM26.6 °F21.2 °F80 %30.26 in1.2 miCalmPartly Cloudy
8:12 PM26.6 °F23.0 °F86 %30.26 in3.0 miCalmPartly Cloudy
8:26 PM24.8 °F21.2 °F86 %30.27 in1.5 miCalmPartly Cloudy
8:29 PM26.6 °F23.0 °F86 %30.27 in0.8 miCalmScattered Clouds
8:38 PM28.4 °F24.8 °F86 %30.26 in2.5 miCalmPartly Cloudy
8:40 PM28.4 °F24.8 °F86 %30.26 in6.0 miCalmPartly Cloudy
8:49 PM24.8 °F21.2 °F86 %30.26 in0.5 miCalmFogLight Freezing Fog
8:53 PM25.0 °F21.9 °F88 %30.35 in0.5 miCalmFogLight Freezing Fog
8:59 PM26.6 °F21.2 °F80 %30.26 in3.0 miSSW (200°)3.5 mphScattered Clouds
9:10 PM26.6 °F23.0 °F86 %30.25 in0.8 miCalmMostly Cloudy
9:23 PM26.6 °F23.0 °F86 %30.24 in0.5 miSSW (200°)4.6 mphFogLight Freezing Fog
9:38 PM26.6 °F23.0 °F86 %30.24 in1.2 miCalmScattered Clouds
9:53 PM28.0 °F24.1 °F85 %30.30 in4.0 miCalmPartly Cloudy
10:03 PM24.8 °F21.2 °F86 %30.24 in1.8 miCalmPartly Cloudy
10:07 PM24.8 °F21.2 °F86 %30.24 in0.8 miVariable3.5 mphMist
10:18 PM26.6 °F21.2 °F80 %30.24 in3.0 miESE (120°)4.6 mphPartly Cloudy
10:44 PM24.8 °F21.2 °F86 %30.24 in2.0 miSSW (210°)3.5 mphScattered Clouds
10:51 PM26.6 °F21.2 °F80 %30.24 in5.0 miVariable3.5 mphScattered Clouds
10:53 PM26.1 °F21.9 °F84 %30.27 in5.0 miCalmScattered Clouds
11:09 PM24.8 °F19.4 °F80 %30.24 in2.5 miCalmPartly Cloudy
11:12 PM23.0 °F19.4 °F86 %30.24 in1.0 miCalmMist
11:17 PM23.0 °F19.4 °F86 %30.25 in0.5 miCalmFogLight Freezing Fog
11:30 PM24.8 °F19.4 °F80 %30.25 in1.2 miCalmClear
11:35 PM26.6 °F21.2 °F80 %30.26 in3.0 miCalmHaze
11:41 PM24.8 °F21.2 °F86 %30.26 in5.0 miCalmPartly Cloudy
11:53 PM21.9 °F17.1 °F82 %30.29 in3.0 miCalmHaze
Hourly data recorded from KTVL, located miles away from South Lake Tahoe, California







STORIES FROM OUR PARTNERS